Regional Weather Roundup
Issued by NWS Charleston, WV

Home | Current Version | Previous Version | Graphics & Text | Print | Product List | Glossary On
Versions: 1 2 3 4 5 6 7 8 9 10 11 12 13 14 15 16 17 18 19 20 21 22 23 24 25 26 27
000
ASUS41 KRLX 092210
RWRRLX
West Virginia Regional Weather Roundup
National Weather Service Charleston WV
500 PM EST SAT DEC 09 2017

Note: "fair" indicates few or no clouds below 12,000 feet with no
significant weather and/or obstructions to visibility.

WVZ003-092300-
Northern Panhandle of West Virginia

CITY           SKY/WX    TMP DP  RH WIND       PRES   REMARKS
WHEELING       CLOUDY    32   8  36 W8        29.75R
$$

WVZ009-092300-
Northwest West Virginia

CITY           SKY/WX    TMP DP  RH WIND       PRES   REMARKS
PARKERSBURG    CLOUDY    35  10  35 SW14G21   29.82R
$$

WVZ006-092300-
Western West Virginia

CITY           SKY/WX    TMP DP  RH WIND       PRES   REMARKS
HUNTINGTON     CLOUDY    34  17  50 W10G21    29.83R
$$

WVZ015-092300-
West Central West Virginia

CITY           SKY/WX    TMP DP  RH WIND       PRES   REMARKS
CHARLESTON     CLOUDY    37   8  30 W7        29.79R
$$

WVZ022-031-092300-
North Central West Virginia

CITY           SKY/WX    TMP DP  RH WIND       PRES   REMARKS
CLARKSBURG     CLOUDY    35  15  44 SW6       29.76R
MORGANTOWN     MOCLDY    34  12  40 S5        29.76R
$$

WVZ025-035-042-045-092300-
Southern West Virginia

CITY           SKY/WX    TMP DP  RH WIND       PRES   REMARKS
BECKLEY        CLOUDY    32  11  41 W8        29.72R
LOGAN          CLOUDY    34   9  35 VRB7G14   29.78R
BLUEFIELD      CLOUDY    31  16  54 W8        29.71R
LEWISBURG      PTCLDY    32  24  74 SW3       29.72R
$$

WVZ047-092300-
Northern Mountains of West Virginia

CITY           SKY/WX    TMP DP  RH WIND       PRES   REMARKS
ELKINS         PTCLDY    31  13  47 W7        29.72R
$$

WVZ052-092300-
Eastern Panhandle of West Virginia

CITY           SKY/WX    TMP DP  RH WIND       PRES   REMARKS
MARTINSBURG    CLOUDY    29  25  85 CALM      29.78R
PETERSBURG     PTCLDY    31  25  80 CALM      29.75S
$$




USA.gov is the U.S. government's official web portal to all federal, state and local government web resources and services.